Weather History for Asheville, NC

Change the Weather History Date:

Saturday, August 30, 2008

  Actual Average Record
Temperature  
Mean Temperature 72 °F 71 °F  
Max Temperature 86 °F 81 °F 96 °F (1932)
Min Temperature 58 °F 61 °F 43 °F (1968)
Degree Days  
Heating Degree Days 0 0  
Month to date heating degree days 0 0  
Since 1 June heating degree days 14  
Since 1 July heating degree days 1 0  
Cooling Degree Days 7 6  
Month to date cooling degree days 236 242  
Year to date cooling degree days 760 752  
Since 1 June cooling degree days 694  
Growing Degree Days 22 (Base 50)    
Moisture  
Dew Point 61 °F    
Average Humidity 65    
Maximum Humidity 100    
Minimum Humidity 30    
Precipitation  
Precipitation 0.00 in 0.14 in 2.56 in (1910)
Month to date precipitation 5.84 4.26  
Year to date precipitation 25.74 31.47  
Snow  
Snow 0.00 in 0.00 in 0.00 in ()
Month to date snowfall 0.0 0.0  
Since 1 June snowfall 0.0  
Since 1 July snowfall 0.0 0.0  
Snow Depth -    
Sea Level Pressure  
Sea Level Pressure 30.04 in    
Wind  
Wind Speed 3 mph (West)    
Max Wind Speed 9 mph    
Max Gust Speed 12 mph    
Visibility 8 miles    
Events      
T = Trace of Precipitation, MM = Missing Value Source: NWS Daily Summary

Daily Weather History Graph

Daily Weather History Graph

Search for Another Location

Airport:

Trip Planner

Search our weather history database for the weather conditions in past years. The results will help you decide how hot, cold, wet, or windy it might be!

Date:

Astronomy

Aug. 30, 2008 Rise Set
Actual Time 7:01 AM EDT 7:59 PM EDT
Civil Twilight 6:35 AM EDT 8:25 PM EDT
Nautical Twilight 6:04 AM EDT 8:56 PM EDT
Astronomical Twilight 5:32 AM EDT 9:28 PM EDT
Moon 6:43 AM EDT (8/30) 7:51 PM EDT (8/30)
Length of Visible Light 13h 50m
Length of Day
12h 58m
Waning Crescent, 0% of the Moon is Illuminated
Aug 30
Waning Crescent
Aug 30
New
Sep 7
First Quarter
Sep 15
Full
Sep 22
Last Quarter

Hourly Weather History & Observations

Time (EDT) Temp. Heat Index Dew Point Humidity Pressure Visibility Wind Dir Wind Speed Gust Speed Precip Events Conditions
12:54 AM 63.0 °F - 61.0 °F 93% 30.01 in 8.0 mi NNW 3.5 mph - N/A   Clear
1:54 AM 62.1 °F - 61.0 °F 96% 30.01 in 7.0 mi Calm Calm - N/A   Clear
2:54 AM 60.1 °F - 59.0 °F 96% 30.01 in 6.0 mi Calm Calm - N/A   Clear
3:54 AM 60.1 °F - 57.9 °F 93% 30.01 in 5.0 mi Calm Calm - N/A   Clear
4:54 AM 59.0 °F - 57.9 °F 96% 30.01 in 4.0 mi Calm Calm - N/A   Clear
5:54 AM 59.0 °F - 57.9 °F 96% 30.02 in 4.0 mi Calm Calm - N/A   Clear
6:54 AM 57.9 °F - 57.0 °F 97% 30.04 in 6.0 mi Calm Calm - N/A   Partly Cloudy
7:54 AM 60.1 °F - 59.0 °F 96% 30.06 in 4.0 mi WNW 3.5 mph - N/A   Clear
8:54 AM 64.0 °F - 60.1 °F 87% 30.08 in 6.0 mi NNW 8.1 mph - N/A   Clear
9:54 AM 70.0 °F - 62.1 °F 76% 30.08 in 8.0 mi NNW 5.8 mph - N/A   Clear
10:54 AM 75.0 °F - 62.1 °F 64% 30.09 in 10.0 mi NNW 3.5 mph - N/A   Clear
11:54 AM 78.1 °F - 62.1 °F 58% 30.07 in 10.0 mi Calm Calm - N/A   Clear
12:54 PM 81.0 °F 81.6 °F 60.1 °F 49% 30.06 in 10.0 mi SSE 5.8 mph - N/A   Clear
1:54 PM 82.9 °F 82.0 °F 55.0 °F 38% 30.05 in 10.0 mi Variable 3.5 mph - N/A   Clear
2:54 PM 84.0 °F 82.6 °F 54.0 °F 35% 30.04 in 10.0 mi Variable 5.8 mph - N/A   Clear
3:54 PM 86.0 °F - 52.0 °F 31% 30.01 in 10.0 mi Variable 3.5 mph - N/A   Clear
4:54 PM 86.0 °F 84.5 °F 55.0 °F 35% 30.00 in 10.0 mi Variable 4.6 mph - N/A   Clear
5:54 PM 84.0 °F 84.9 °F 63.0 °F 49% 30.01 in 10.0 mi SSE 9.2 mph - N/A   Clear
6:54 PM 82.0 °F 83.4 °F 64.0 °F 54% 30.02 in 10.0 mi Variable 5.8 mph - N/A   Clear
7:54 PM 78.1 °F - 66.0 °F 66% 30.04 in 10.0 mi South 5.8 mph - N/A   Clear
8:54 PM 75.0 °F - 66.0 °F 73% 30.06 in 10.0 mi Calm Calm - N/A   Clear
9:54 PM 73.0 °F - 66.9 °F 81% 30.09 in 10.0 mi South 3.5 mph - N/A   Partly Cloudy
10:54 PM 72.0 °F - 66.9 °F 84% 30.08 in 10.0 mi Calm Calm - N/A   Scattered Clouds
11:54 PM 69.1 °F - 66.0 °F 90% 30.09 in 10.0 mi Calm Calm - N/A   Clear